AKST,Max TemperatureF,Mean TemperatureF,Min TemperatureF,Max Dew PointF,MeanDew PointF,Min DewpointF,Max Humidity, Mean Humidity, Min Humidity, Max Sea Level PressureIn, Mean Sea Level PressureIn, Min Sea Level PressureIn, Max VisibilityMiles, Mean VisibilityMiles, Min VisibilityMiles, Max Wind SpeedMPH, Mean Wind SpeedMPH, Max Gust SpeedMPH,PrecipitationIn, CloudCover, Events, WindDirDegrees
2013-1-1,44,42,39,39,35,30,87,76,57,30.05,29.95,29.89,10,8,5,21,9,29,0.00,8,Rain,136
2013-1-2,37,36,35,36,35,34,100,93,87,29.89,29.85,29.82,10,10,10,4,2,,0.00,7,,90
2013-1-3,37,36,35,36,35,34,100,96,93,29.88,29.81,29.74,7,5,4,8,6,,0.00,7,Rain,7
2013-1-4,41,40,39,39,38,37,93,92,87,30.01,29.99,29.95,10,9,7,7,3,,0.00,8,,5
2013-1-5,39,39,37,39,38,37,100,98,93,29.67,29.64,29.62,7,7,7,12,6,,0.00,8,Rain,170
2013-1-6,41,40,39,39,38,37,100,92,87,29.70,29.66,29.59,7,6,2,21,18,29,0.00,8,Rain,162
2013-1-7,41,40,39,34,33,32,81,75,70,29.65,29.58,29.47,10,8,7,9,8,,0.00,7,,248
2013-1-8,37,35,33,37,35,34,100,97,87,29.70,29.67,29.64,10,8,5,5,4,,0.00,7,Rain,-1
2013-1-9,35,32,30,32,29,27,100,91,70,30.07,29.97,29.87,10,10,10,2,1,,0.00,0,,-1
2013-1-10,35,34,33,34,33,32,100,96,93,30.21,30.18,30.17,10,8,5,1,1,,0.00,8,Rain,90
2013-1-11,39,38,35,37,36,34,93,92,87,30.17,30.17,30.16,5,5,5,14,8,,0.00,8,Rain,0
2013-1-12,37,37,37,37,37,36,100,99,93,30.38,30.37,30.36,7,6,3,7,5,,0.00,8,,350
2013-1-13,41,39,37,41,40,37,100,100,100,30.35,30.34,30.32,2,2,2,5,1,,0.00,8,,40
2013-1-14,44,43,42,43,42,41,100,95,93,30.35,30.34,30.32,7,4,1,18,10,31,0.00,7,,216
2013-1-15,44,42,42,43,41,41,100,93,87,30.25,30.22,30.20,2,2,1,23,17,34,0.00,8,Rain,175
2013-1-16,42,40,39,43,41,37,100,99,93,30.30,30.16,30.02,5,3,2,17,7,,0.00,8,Rain,170
2013-1-17,42,42,41,43,41,39,100,96,93,29.79,29.74,29.69,10,6,3,21,15,37,0.00,8,Rain,176
2013-1-18,39,37,35,36,35,34,100,92,87,30.22,30.19,30.14,10,9,7,0,0,,0.00,7,Rain,-1
2013-1-19,39,38,37,36,34,34,93,84,81,30.28,30.27,30.26,10,9,7,12,7,,0.00,7,,23
2013-1-20,42,40,37,41,40,37,100,97,93,30.24,30.20,30.17,10,6,2,9,3,,0.00,8,,0
2013-1-21,42,42,41,43,41,41,100,96,93,30.06,29.99,29.92,7,6,3,12,8,,0.00,7,,0
2013-1-22,42,42,41,41,40,39,100,96,93,29.71,29.66,29.62,7,6,3,6,3,,0.00,8,Rain,180
2013-1-23,41,41,41,39,38,37,93,88,87,29.62,29.61,29.60,7,6,5,21,16,,0.00,7,Rain,158
2013-1-24,41,41,39,39,39,39,100,94,93,29.65,29.52,29.36,10,8,7,4,3,,0.00,8,Rain,-1
2013-1-25,42,42,41,41,39,37,93,87,81,29.45,29.41,29.36,7,7,7,23,22,34,0.00,8,Rain,192
2013-1-26,39,38,37,36,33,30,87,81,70,29.65,29.64,29.63,7,6,4,17,9,23,0.00,7,Rain,233
2013-1-27,39,37,35,30,28,25,81,72,65,29.81,29.77,29.65,7,4,1,9,3,,0.00,6,Snow,45
2013-1-28,26,24,21,27,23,21,100,96,86,30.08,29.97,29.84,10,8,3,17,17,29,0.00,7,Snow,16
2013-1-29,33,29,26,32,29,25,100,95,87,29.97,29.91,29.89,4,3,2,14,9,,0.00,8,Rain-Snow,346
2013-1-30,37,36,35,37,37,34,100,99,93,30.14,30.08,29.99,4,3,2,9,4,,0.00,8,Rain,11
2013-1-31,41,39,37,39,37,36,100,93,87,30.03,29.97,29.90,2,1,0,5,3,,0.00,8,Fog,180